Retour au catalogue

SL-8 DEB

ActifLEO
NORAD 21138·DEBRIS·🇷🇺 Russia

Lancé Feb 12, 1991 depuis Plesetsk Cosmodrome

Loading…

Prochains Passages (prochaines 24 heures)

TLE

FraisSource: Space-Track

Époque: Sep 14, 2026, 12:28 UTC

1 21138U 91009Q   26257.52005855  .00000013  00000-0  21197-3 0  9993
2 21138  74.0828 181.1203 0216129 114.2130 358.4650 12.29192480596824

Suivez SL-8 DEB en temps réel avec AllMySat

Download on the App Store